Hourly Data Report for July 01, 2002

SHERBROOKE A
QUEBEC

45°26'00.000" N
71°41'00.000" W
241.40 m
7028124
71610
YSC

Download Data

Hourly Data (July 2002)
Hourly Data Report for July 1, 2002
TIME
LST
Temp Definition
°C
Dew Point Definition
°C
Rel Hum Definition
%
Precip. Amount Definition
mm

Wind Dir Definition
10's deg

Wind Spd Definition
km/h
Visibility Definition
km
Stn Press Definition
kPa
Hmdx Definition


Wind Chill Definition


Weather Definition


00:00 20.9 16.2 74   24 6 15.0 98.82 26    
01:00 20.6 15.9 74   22 6 15.0 98.75 25    
02:00 20.3 16.1 77   21 6 15.0 98.64 25   Rain
03:00 19.8 16.1 79   23 6 15.0 98.66      
04:00 19.4 16.6 84     0 15.0 98.71      
05:00 19.6 16.5 82   22 6 15.0 98.74      
06:00 20.9 17.4 80   13 9 12.9 98.85 26    
07:00 23.0 18.4 75   14 7 24.1 98.82 29   Mostly Cloudy
08:00 24.0 17.9 69   21 11 16.1 98.74 30   Mostly Cloudy
09:00 25.3 18.9 68   25 17 16.1 98.69 32   Mostly Cloudy
10:00 25.1 19.1 69   24 7 12.9 98.66 32   Mostly Cloudy
11:00 27.3 20.1 65   23 13 16.1 98.60 35   Mostly Cloudy
12:00 26.9 20.3 67   27 11 24.1 98.57 35   Mostly Cloudy
13:00 27.3 20.8 68   23 7 19.3 98.52 36   Cloudy
14:00 27.3 21.7 72   27 9 9.7 98.50 36   Haze
15:00 28.4 22.5 70   28 11 9.7 98.49 38   Haze
16:00 28.4 22.3 70   25 11 9.7 98.44 38   Haze
17:00 28.6 23.1 72   23 7 8.0 98.43 39    
18:00 27.7 23.4 77   20 6 8.0 98.43 38    
19:00 27.5 22.7 75   26 9 8.0 98.45 37    
20:00 26.8 22.1 75   25 9 8.0 98.48 36    
21:00 25.6 21.9 80   23 11 8.0 98.47 35    
22:00 24.9 21.8 83   23 7 6.4 98.44 34    
23:00 24.9 21.2 80   23 6 5.6 98.43 33    

Notes on Data Quality.

Legend

  • E = Estimated
  • M = Missing
  • NA = Not Available*
  • [empty] = Indicates an unobserved value
Date modified: